Location: Worth Mountain WMA
(34.9569°N, 81.4819°W)
Time: 09:05:47
(UTC-05:00)

Okean 1 Rocket - Pass Details

Date: 18 August 2017
Orbit: 606 x 636 km, 82.5° (Epoch: 20 November)

Event Time Altitude Azimuth Distance (km) Brightness Sun altitude
Exits shadow 21:58:28 50° 166° (SSE) 778 3.2 -20.9°
Maximum altitude 21:59:31 75° 95° (E) 634 2.9 -21.1°
Drops below altitude 10° 22:03:52 10° 10° (N) 1,972 5.9 -21.8°
Sets 22:06:07 0° 9° (N) 2,885 6.8 -22.2°
